[[{"header":{"parameterUnit":"m.s-1","parameterCategory":1,"la1":30.2991,"la2":30.254,"lo1":-89.0895,"lo2":-89.0444,"dy":0.0017,"dx":0.0017,"nx":28,"ny":28,"refTime":"2023-08-31T09:00:00:Z","depth":0,"parameterNumber":2,"parameterNumberName":"U-component_of_WINDS"},"data":[0,0,0,0,0,0,0,0,0,0,0,0,0,0,0,0,0,0,0,0,0,0,0,0,0,0,0,0,0,0,0,0,0,0,0,0,0,0,0,0,0,0,0,0,0,0,0,0,0,0,0,0,0,0,0,0,0,0,-1.9522,-1.9522,0,-1.9546,-1.9547,-1.9547,-1.9478,-1.9476,-1.9474,-1.9472,-1.95,-1.9502,-1.9505,0,0,0,0,0,0,0,0,0,0,0,0,0,-1.9416,-1.9418,-1.9522,-1.9522,-1.9522,-1.9546,-1.9547,-1.9547,-1.9479,-1.9476,-1.9473,-1.9471,-1.9499,-1.9502,-1.9505,0,0,0,0,0,0,0,0,0,0,0,0,0,-1.9453,-1.9419,-1.9522,-1.9491,-1.9488,-1.9546,-1.9547,-1.9547,-1.9479,-1.9476,-1.9473,-1.947,-1.9498,-1.9502,-1.9506,-1.9595,0,0,-1.9518,-1.952,0,0,0,0,0,0,0,0,-1.9451,-1.9457,-1.9495,-1.9493,-1.949,-1.9506,-1.9519,-1.9563,-1.948,-1.9483,-1.9472,-1.9468,-1.9504,-1.9508,-1.952,-1.9596,-1.9598,-1.9519,-1.9521,-1.9523,-1.9524,0,0,0,0,0,0,0,-1.9449,-1.9456,-1.9531,-1.9496,-1.9493,-1.9476,-1.9478,-1.9527,-1.9511,-1.9482,-1.9477,-1.9481,-1.9503,-1.9516,-1.952,-1.9598,-1.9518,-1.9522,-1.9525,-1.9526,-1.9746,-1.9749,0,0,0,0,0,0,-1.945,-1.9454,-1.9531,-1.9532,-1.9462,-1.9481,-1.9483,-1.9504,-1.9511,-1.9508,-1.9484,-1.9478,-1.951,-1.9515,-1.952,-1.9623,-1.9523,-1.9527,-1.9529,-1.9743,-1.9747,-1.9751,0,0,0,0,0,0,-1.9448,-1.9457,-1.953,-1.9492,-1.95,-1.9486,-1.9511,-1.9506,-1.9519,-1.9512,-1.9509,-1.95,-1.9508,-1.9515,-1.9576,-1.9623,-1.9528,-1.9532,-1.9739,-1.9744,-1.9749,-1.9831,0,0,0,0,0,0,-1.9445,-1.9457,-1.9491,-1.9493,-1.9502,-1.9585,-1.9514,-1.9509,-1.9526,-1.9519,-1.9526,-1.9524,-1.9506,-1.957,-1.958,-1.9627,-1.9535,-1.9735,-1.9741,-1.9747,-1.9824,-1.9838,-1.9851,0,0,0,0,0,-1.9442,-1.9514,-1.9493,-1.9503,-1.9544,-1.9588,-1.9593,-1.957,-1.9531,-1.9564,-1.9559,-1.9524,-1.9617,-1.9577,-1.9588,-1.9637,-1.9731,-1.9739,-1.9747,-1.9818,-1.9836,-1.985,0,0,0,0,0,0,-1.952,-1.9514,-1.949,-1.9566,-1.9578,-1.9576,-1.9618,-1.959,-1.9614,-1.9605,-1.9576,-1.9578,-1.9645,-1.9647,-1.9603,-1.9722,-1.9667,-1.9677,-1.9718,-1.9735,-1.9748,-1.9745,-1.9539,0,0,0,0,0,-1.9546,-1.9582,-1.9575,-1.9642,-1.9649,-1.9633,-1.9651,-1.9632,-1.9643,-1.9648,-1.9648,-1.966,-1.9692,-1.9713,-1.9742,-1.9824,-1.9824,-1.9863,-1.9876,-1.9887,-1.9896,-1.9937,-1.9953,-1.9776,-1.9776,-1.9775,0,0,-1.96,-1.9601,-1.9626,-1.9658,-1.9665,-1.9702,-1.9638,-1.9681,-1.9708,-1.9655,-1.9712,-1.9712,-1.9724,-1.9796,-1.9827,-1.98,-1.9945,-1.9897,-1.9905,-1.9908,-1.9946,-1.9963,-1.9978,-1.9781,-1.978,-1.9779,0,0,-1.9718,-1.9723,-1.9778,-1.9786,-1.9796,-1.9784,-1.9798,-1.98,-1.9797,-1.9854,-1.9814,-1.9846,-1.9902,-1.9911,-1.9924,-2.0042,-2.001,-2.0052,-2.0121,-2.0161,-2.0175,-2.0188,-2.0228,-2.0243,-2.0061,-2.0062,-2.0062,0,-1.9784,-1.9838,-1.9811,-1.9855,-1.987,-1.9822,-1.9877,-1.9886,-1.9906,-1.9917,-1.9886,-1.9952,-1.9958,-2.0029,-2.0058,-2.007,-2.0083,-2.0051,-2.0175,-2.0187,-2.0198,-2.0236,-2.0252,-2.0066,-2.0066,-2.0065,-2.0065,0,-1.9918,-1.9956,-2.0,-2.0018,-2.0037,-2.0087,-2.0067,-2.009,-2.0068,-2.006,-2.0117,-2.0121,-2.0149,-2.0164,-2.0145,-2.0233,-2.0215,-2.018,-2.0124,-2.0221,-2.0256,-2.027,-2.0073,-2.0072,-2.007,-2.0069,0,0,-2.0087,-2.0087,-2.0103,-2.0109,-2.0116,-2.0145,-2.0193,-2.0218,-2.0237,-2.0253,-2.029,-2.0337,-2.0304,-2.0318,-2.0299,-2.0335,-2.0425,-2.0295,-2.0295,-2.0317,-2.0519,-2.0544,-2.0562,-2.0404,-2.0407,-2.0409,-2.0518,0,-2.0201,-2.028,-2.0255,-2.0336,-2.0369,-2.0323,-2.0364,-2.0372,-2.0365,-2.0393,-2.0385,-2.0418,-2.0373,-2.0381,-2.0414,-2.0407,-2.0465,-2.0399,-2.0438,-2.044,-2.0435,-2.058,-2.0607,-2.071,-2.0531,-2.0534,-2.0536,0,-2.0345,-2.0363,-2.0446,-2.0444,-2.0457,-2.0495,-2.0514,-2.0542,-2.055,-2.0542,-2.0556,-2.0529,-2.0574,-2.0519,-2.058,-2.0536,-2.055,-2.055,-2.0553,-2.0555,-2.0493,-2.0584,-2.0742,-2.0757,-2.0557,-2.0556,-2.0554,0,-2.0457,-2.0503,-2.0557,-2.0564,-2.0564,-2.0591,-2.0592,-2.0597,-2.0613,-2.0631,-2.0641,-2.0664,-2.0677,-2.0696,-2.0675,-2.0637,-2.0739,-2.0682,-2.0733,-2.0733,-2.0756,-2.0754,-2.0916,-2.0768,-2.0768,-2.0768,-2.0767,0,-2.0586,-2.0638,-2.0607,-2.0641,-2.0697,-2.0668,-2.0724,-2.0721,-2.0725,-2.0756,-2.0719,-2.075,-2.0721,-2.0749,-2.0734,-2.0786,-2.0793,-2.0787,-2.0782,-2.0789,-2.079,-2.0797,-2.0789,-2.0772,-2.0771,-2.077,-2.0769,0,-2.0721,-2.0702,-2.0758,-2.0752,-2.0752,-2.0794,-2.0789,-2.0819,-2.0809,-2.0849,-2.0857,-2.0841,-2.0871,-2.0853,-2.0885,-2.0874,-2.0941,-2.0927,-2.0938,-2.0933,-2.0984,-2.0979,-2.1155,-2.1176,-2.1016,-2.1018,-2.1019,0,-2.0804,-2.0842,-2.084,-2.0857,-2.0861,-2.089,-2.0905,-2.0878,-2.0895,-2.0906,-2.0935,-2.0962,-2.0982,-2.1033,-2.1024,-2.1048,-2.1033,-2.1093,-2.1036,-2.1042,-2.1031,-2.1028,-2.1031,-2.1104,-2.1106,-2.1108,-2.1109,0,-2.0953,-2.094,-2.0963,-2.0982,-2.1001,-2.1015,-2.1026,-2.1043,-2.1015,-2.1037,-2.1066,-2.1082,-2.1113,-2.114,-2.1159,-2.116,-2.113,-2.1127,-2.1139,-2.1147,-2.115,-2.1147,-2.0967,-2.1123,-2.1121,-2.112,-2.112,-2.1119,-2.1062,-2.1093,-2.1095,-2.1121,-2.1126,-2.1137,-2.1164,-2.1155,-2.1179,-2.1201,-2.1184,-2.1219,-2.1224,-2.1246,-2.1251,-2.1278,-2.1254,-2.1273,-2.1277,-2.1282,-2.1287,-2.1147,-2.1282,-2.1282,-2.1281,-2.1281,-2.1281,0,-2.1207,-2.1205,-2.1229,-2.1244,-2.1265,-2.1233,-2.1243,-2.1262,-2.1292,-2.1299,-2.1319,-2.1352,-2.1377,-2.1369,-2.1391,-2.1414,-2.1401,-2.1421,-2.1418,-2.1418,-2.1309,-2.1295,-2.1431,-2.1431,-2.1431,-2.1431,-2.1431,-2.1431,-2.1284,-2.1334,-2.1322,-2.1373,-2.1371,-2.1403,-2.1411,-2.142,-2.1425,-2.1463,-2.1483,-2.1477,-2.1478,-2.1499,-2.152,-2.1517,-2.1527,-2.1552,-2.1544,-2.1441,-2.1427,-2.1412,-2.1399,-2.1554,-2.1555,-2.165,-2.1651,-2.1652]},{"header":{"parameterUnit":"m.s-1","parameterCategory":1,"la1":30.2991,"la2":30.254,"lo1":-89.0895,"lo2":-89.0444,"dy":0.0017,"dx":0.0017,"nx":28,"ny":28,"refTime":"2023-08-31T09:00:00:Z","depth":0,"parameterNumber":3,"parameterNumberName":"V-component_of_WINDS"},"data":[0,0,0,0,0,0,0,0,0,0,0,0,0,0,0,0,0,0,0,0,0,0,0,0,0,0,0,0,0,0,0,0,0,0,0,0,0,0,0,0,0,0,0,0,0,0,0,0,0,0,0,0,0,0,0,0,0,0,-1.5931,-1.593,0,-1.5864,-1.5863,-1.5862,-1.5846,-1.5846,-1.5847,-1.5847,-1.5773,-1.5771,-1.5769,0,0,0,0,0,0,0,0,0,0,0,0,0,-1.6038,-1.6036,-1.5931,-1.593,-1.5929,-1.5864,-1.5863,-1.5862,-1.5846,-1.5846,-1.5847,-1.5848,-1.5774,-1.5771,-1.5769,0,0,0,0,0,0,0,0,0,0,0,0,0,-1.5983,-1.6035,-1.5931,-1.5913,-1.5911,-1.5864,-1.5863,-1.5862,-1.5846,-1.5847,-1.5847,-1.5848,-1.5775,-1.5772,-1.5768,-1.5732,0,0,-1.5757,-1.5756,0,0,0,0,0,0,0,0,-1.5986,-1.5979,-1.5917,-1.5914,-1.5912,-1.5864,-1.5873,-1.5818,-1.5846,-1.587,-1.5847,-1.5848,-1.5803,-1.5797,-1.5783,-1.5728,-1.5725,-1.5757,-1.5755,-1.5753,-1.5752,0,0,0,0,0,0,0,-1.599,-1.5982,-1.5904,-1.5916,-1.5913,-1.5906,-1.5899,-1.5863,-1.5833,-1.5868,-1.5867,-1.586,-1.5801,-1.5786,-1.5781,-1.5724,-1.5757,-1.5754,-1.5751,-1.575,-1.5632,-1.5631,0,0,0,0,0,0,-1.5997,-1.5985,-1.5906,-1.5902,-1.5952,-1.5904,-1.5896,-1.5879,-1.5834,-1.5828,-1.5859,-1.5859,-1.5792,-1.5785,-1.5778,-1.5729,-1.5753,-1.575,-1.5748,-1.5633,-1.5632,-1.563,0,0,0,0,0,0,-1.6,-1.5991,-1.5909,-1.5943,-1.5932,-1.5901,-1.5882,-1.5877,-1.5862,-1.5827,-1.5821,-1.5849,-1.5792,-1.5783,-1.5743,-1.5727,-1.5748,-1.5745,-1.5634,-1.5632,-1.5631,-1.5634,0,0,0,0,0,0,-1.6003,-1.5992,-1.598,-1.5943,-1.593,-1.5877,-1.5881,-1.5875,-1.5856,-1.5855,-1.5816,-1.581,-1.5792,-1.5748,-1.5739,-1.5722,-1.5742,-1.5635,-1.5633,-1.5631,-1.5635,-1.5633,-1.5631,0,0,0,0,0,-1.6007,-1.5983,-1.5979,-1.597,-1.5915,-1.5876,-1.5869,-1.585,-1.5855,-1.5841,-1.5818,-1.5811,-1.573,-1.5744,-1.5734,-1.5716,-1.5636,-1.5634,-1.5632,-1.5636,-1.5633,-1.5631,0,0,0,0,0,0,-1.6018,-1.5978,-1.5973,-1.5937,-1.591,-1.5874,-1.5856,-1.5848,-1.5818,-1.5819,-1.5795,-1.5786,-1.5746,-1.5727,-1.5743,-1.5676,-1.5683,-1.5679,-1.569,-1.5687,-1.5685,-1.5689,-1.5739,0,0,0,0,0,-1.6016,-1.599,-1.5956,-1.5927,-1.5914,-1.5887,-1.587,-1.5857,-1.5828,-1.5816,-1.579,-1.576,-1.5727,-1.5706,-1.5675,-1.5632,-1.5621,-1.5614,-1.5612,-1.5611,-1.5606,-1.5578,-1.5573,-1.5623,-1.5623,-1.5623,0,0,-1.6012,-1.5987,-1.5972,-1.5929,-1.5906,-1.5877,-1.5878,-1.5848,-1.5824,-1.5811,-1.5771,-1.575,-1.5715,-1.5672,-1.5652,-1.5655,-1.559,-1.5608,-1.5607,-1.5603,-1.5575,-1.5571,-1.5566,-1.5622,-1.5622,-1.5622,0,0,-1.5989,-1.597,-1.5942,-1.5919,-1.5885,-1.5867,-1.586,-1.5824,-1.581,-1.577,-1.5758,-1.5729,-1.5674,-1.5648,-1.5628,-1.5591,-1.5582,-1.5581,-1.5569,-1.5542,-1.5538,-1.5534,-1.5517,-1.5512,-1.5578,-1.5578,-1.5578,0,-1.5988,-1.5946,-1.5928,-1.5897,-1.5877,-1.5864,-1.5833,-1.5811,-1.5768,-1.5753,-1.5757,-1.5686,-1.5661,-1.561,-1.5601,-1.5586,-1.5574,-1.5585,-1.554,-1.5536,-1.5533,-1.5516,-1.551,-1.5577,-1.5577,-1.5578,-1.5578,0,-1.5944,-1.5915,-1.5896,-1.5855,-1.5832,-1.5802,-1.5776,-1.5755,-1.5744,-1.5724,-1.5681,-1.565,-1.561,-1.5598,-1.5587,-1.5544,-1.5546,-1.5546,-1.5552,-1.5528,-1.5512,-1.5506,-1.5577,-1.5577,-1.5577,-1.5577,0,0,-1.5928,-1.5876,-1.5869,-1.5848,-1.5809,-1.5784,-1.5751,-1.5713,-1.5693,-1.5663,-1.5632,-1.5585,-1.5583,-1.556,-1.5545,-1.5522,-1.5489,-1.5523,-1.5522,-1.5515,-1.5435,-1.5434,-1.5427,-1.5484,-1.5483,-1.5482,-1.5437,0,-1.5899,-1.5842,-1.5823,-1.5774,-1.5744,-1.5729,-1.57,-1.567,-1.565,-1.5619,-1.5596,-1.5561,-1.5564,-1.5549,-1.5525,-1.5499,-1.5472,-1.5502,-1.5451,-1.545,-1.5458,-1.5419,-1.5419,-1.5378,-1.5431,-1.543,-1.5429,0,-1.5858,-1.5826,-1.5775,-1.5735,-1.5722,-1.5696,-1.5657,-1.5629,-1.5593,-1.558,-1.5552,-1.5539,-1.55,-1.5509,-1.5453,-1.5473,-1.5451,-1.5435,-1.5432,-1.5425,-1.5436,-1.5408,-1.5365,-1.5358,-1.542,-1.5421,-1.5421,0,-1.5847,-1.5792,-1.5753,-1.5737,-1.569,-1.5672,-1.5651,-1.5616,-1.5593,-1.5558,-1.5542,-1.5503,-1.5481,-1.5449,-1.5423,-1.5434,-1.5368,-1.5377,-1.5352,-1.5352,-1.5338,-1.5338,-1.5288,-1.5328,-1.5328,-1.5328,-1.5329,0,-1.5815,-1.5783,-1.5748,-1.5723,-1.5686,-1.5663,-1.5625,-1.5603,-1.5571,-1.554,-1.5525,-1.5495,-1.5464,-1.5429,-1.5409,-1.5363,-1.5354,-1.5339,-1.5333,-1.5339,-1.534,-1.5322,-1.5323,-1.5327,-1.5327,-1.5327,-1.5328,0,-1.5797,-1.5773,-1.5728,-1.5687,-1.5676,-1.5649,-1.5612,-1.5586,-1.5564,-1.5524,-1.5513,-1.5478,-1.5436,-1.5408,-1.5354,-1.534,-1.5288,-1.5285,-1.53,-1.5297,-1.5273,-1.5274,-1.5207,-1.5194,-1.5246,-1.5246,-1.5245,0,-1.5778,-1.5752,-1.5708,-1.5686,-1.5665,-1.5631,-1.5607,-1.5581,-1.5556,-1.5511,-1.5489,-1.5446,-1.541,-1.5342,-1.531,-1.5267,-1.5261,-1.524,-1.5254,-1.5259,-1.5256,-1.5256,-1.5251,-1.5237,-1.5237,-1.5236,-1.5236,0,-1.5744,-1.5732,-1.5699,-1.566,-1.5631,-1.5599,-1.5567,-1.5549,-1.5517,-1.5489,-1.5446,-1.5418,-1.5361,-1.5317,-1.527,-1.5245,-1.5233,-1.5232,-1.5223,-1.5227,-1.5236,-1.5227,-1.5291,-1.5233,-1.5233,-1.5234,-1.5234,-1.5234,-1.5723,-1.5698,-1.5662,-1.5623,-1.5596,-1.5565,-1.5537,-1.5511,-1.5475,-1.5428,-1.5414,-1.5368,-1.5328,-1.5264,-1.5238,-1.5199,-1.5201,-1.519,-1.5186,-1.5183,-1.518,-1.5244,-1.5191,-1.5191,-1.5191,-1.5191,-1.5191,0,-1.5686,-1.5661,-1.5626,-1.558,-1.5549,-1.5542,-1.5505,-1.5478,-1.5438,-1.5402,-1.5367,-1.5314,-1.5269,-1.5233,-1.5186,-1.5161,-1.5154,-1.5149,-1.5149,-1.5143,-1.5184,-1.5194,-1.5155,-1.5155,-1.5155,-1.5155,-1.5155,-1.5155,-1.5663,-1.5619,-1.5602,-1.5543,-1.5517,-1.5473,-1.5451,-1.542,-1.5392,-1.5334,-1.5297,-1.5274,-1.5236,-1.5185,-1.5143,-1.5133,-1.5114,-1.511,-1.5098,-1.5137,-1.5141,-1.5144,-1.5154,-1.5107,-1.5107,-1.506,-1.506,-1.5059]}]]